Regional Weather Roundup
Issued by NWS Midland/Odessa, TX

Home | Current Version | Previous Version | Text Only | Print | Product List | Glossary On
Versions: 1 2 3 4 5 6 7 8 9 10 11 12 13 14 15 16 17 18 19 20 21 22 23 24 25 26 27 28 29 30 31 32 33 34 35 36 37 38 39 40 41 42 43 44 45 46 47 48 49 50
000
ASUS44 KMAF 061410
RWRMAF
MIDLAND AREA WEATHER ROUNDUP
NATIONAL WEATHER SERVICE MIDLAND TX
800 AM CST SAT FEB 06 2016

...IN SOUTHWEST TEXAS AND SOUTHEAST NEW MEXICO...

CITY           SKY/WX    TMP DP  RH WIND       PRES   REMARKS
ALPINE         CLOUDY    29  12  49 SW9       30.49S WCI  20
ANDREWS        FAIR      26  16  67 W7        30.43R WCI  18
ARTESIA        CLOUDY    19   9  63 CALM      30.42S
BIG SPRING     CLEAR     26  16  67 W3        30.45R
CARLSBAD       CLOUDY    20  13  74 N8        30.42R WCI  10
DRYDEN           N/A     34  17  50 SW9       30.44R WCI  27
FORT STOCKTON  CLEAR     29  18  63 SW12      30.44S WCI  19
GUAD PASS      CLOUDY    28   5  37 SW18      30.40S WCI  15
HOBBS          CLEAR     19  18  93 W7        30.41R WCI  10
MARFA          CLOUDY    13   6  74 W5        30.45S WCI   5
MIDLAND AIRPK  CLEAR     29  20  67 W8        30.44R WCI  21
MIDLAND INTL   CLEAR     26  18  71 W8        30.43R WCI  18
ODESSA         CLEAR     28  17  63 NW8       30.43R WCI  20
PECOS          CLOUDY    19  11  70 SW5       30.45S WCI  12
PRESIDIO       FAIR      30   9  40 N5        30.49S WCI  25
SEMINOLE       CLOUDY    20  15  81 NW7       30.43R WCI  11
SNYDER           N/A     29  19  67 NW9       30.41R WCI  20
WINK           CLOUDY    18  12  77 NE7       30.43R WCI   9
$$
...OTHER STATIONS IN TEXAS...

CITY           SKY/WX    TMP DP  RH WIND       PRES   REMARKS
ABILENE        CLEAR     34  22  61 NW13      30.39R WCI  25
AMARILLO       CLOUDY    22  14  71 W6        30.37R WCI  14
AUSTIN         CLEAR     47  25  42 NW16G23   30.32R
BROWNSVILLE    CLEAR     52  49  89 NW7       30.38R
CORPUS CHRISTI PTCLDY    48  43  82 NW10      30.38R
DALLAS FTW     CLOUDY    38  33  82 NW9       30.27R WCI  31
DEL RIO        CLEAR     39  22  50 NW7       30.46R WCI  34
EL PASO        CLEAR     21   5  50 S6        30.47R WCI  13
HOUSTON INT    PTCLDY    44  43  96 S5        30.29F
LUBBOCK        CLOUDY    19  15  84 NW5       30.39R WCI  12
SAN ANGELO     PTCLDY    29  20  69 W9        30.43R WCI  20
SAN ANTONIO    PTCLDY    42  27  55 NW8       30.38R WCI  37
WACO           CLEAR     38  29  70 NW6       30.28R WCI  33
WICHITA FALLS  NOT AVBL
$$
...OTHER LOCATIONS IN NEW MEXICO...

CITY           SKY/WX    TMP DP  RH WIND       PRES   REMARKS
ALAMAGORDO     CLOUDY    23   1  39 NE10      30.47F WCI  12
ALBUQUERQUE    CLOUDY    24  12  60 N7        30.46F WCI  16
CANNON AFB     NOT AVBL
CLOVIS         CLOUDY    16  10  79 W8        30.37S WCI   5
HOLLOMAN AFB   CLOUDY    19   2  47 E3        30.47R
ROSWELL        CLOUDY    19  10  68 N5        30.41R WCI  12
RUIDOSO          N/A     27   0  31 W8G17     30.39R WCI  18
SANTA FE       CLOUDY    14   5  67 N12       30.41F WCI   0
TRUTH OR CONSE CLEAR     24   4  42 NW6       30.47R WCI  17
TUCUMCARI      CLOUDY    12   7  80 W7        30.35S WCI   1
$$



USA.gov is the U.S. government's official web portal to all federal, state and local government web resources and services.